Regional Weather Roundup
Issued by NWS

Home | Current Version | Previous Version | Text Only | Print | Product List | Glossary Off
Versions: 1 2 3 4 5 6 7 8 9 10 11 12 13 14 15 16 17 18 19 20 21 22 23 24 25 26 27 28 29 30 31 32 33 34 35 36 37 38 39 40 41 42 43 44 45 46 47 48 49 50

000
ASUS43 KLSX 180207
RWRMO

WEATHER SUMMARY FOR MISSOURI
NATIONAL WEATHER SERVICE SPRINGFIELD MO
800 PM CST WED JAN 17 2018

NOTE: "FAIR" INDICATES FEW OR NO CLOUDS BELOW 12,000 FEET WITH NO
       SIGNIFICANT WEATHER AND/OR OBSTRUCTIONS TO VISIBILITY.
       CURRENT SKY AND/OR WEATHER CONDITIONS ARE NOT AVAILABLE FOR
       CHILLICOTHE AND FARMINGTON.

MOZ001>031-035>038-043-044-053-054-180300-
...NORTHERN AND WESTERN MISSOURI...

CITY           SKY/WX    TMP DP  RH WIND       PRES   REMARKS
KANSAS CTY INT CLOUDY    19  10  68 S13       30.46F WCI   6
KANSAS C DTWN  CLOUDY    21  10  62 S10       30.49F WCI  10
LEE`S SUMMIT   CLOUDY    16   9  74 S8        30.48F WCI   5
ST JOSEPH      CLOUDY    16   9  74 S9        30.45F WCI   4
CHILLICOTHE      N/A     18  10  71 S7        30.47F WCI   9
KIRKSVILLE     CLOUDY    17  11  77 SW13      30.44F WCI   4

$$
MOZ066>068-077>081-088>096-101>105-180300-
...SOUTHWEST MISSOURI...

CITY           SKY/WX    TMP DP  RH WIND       PRES   REMARKS
SPRINGFIELD    CLOUDY     8   2  76 SW5       30.52F WCI   0
JOPLIN         CLOUDY    13   8  81 SE3       30.55F
BRANSON        CLEAR     16   7  67 CALM      30.54F

$$
MOZ032>034-039>042-045>050-055>058-069>072-180300-
...CENTRAL MISSOURI...

CITY           SKY/WX    TMP DP  RH WIND       PRES   REMARKS
COLUMBIA       CLOUDY    14   7  73 SW9       30.50F WCI   2
JEFFERSON CITY CLEAR     19   8  62 CALM      30.54F
ROLLA          CLOUDY    16   7  67 SW8       30.52S WCI   5
SEDALIA        CLOUDY    19  10  68 SW13      30.51F WCI   6
WHITEMAN AFB   CLEAR     17   8  67 SW12      30.46F WCI   4
WARRENSBURG    CLOUDY    16   9  73 S7        30.52F WCI   6
OSAGE BEACH    CLOUDY    18   8  65 SW7       30.54F WCI   9

$$
MOZ051-052-059>065-180300-
...EAST CENTRAL MISSOURI...

CITY           SKY/WX    TMP DP  RH WIND       PRES   REMARKS
ST LOUIS INTL  CLOUDY    20  10  65 SW5       30.53F WCI  13
SPIRIT OF STL  CLOUDY    15  10  80 CALM      30.54F
ST CHARLES     CLOUDY    16   8  71 SW5       30.54F WCI   9

$$
MOZ072>076-082>087-097>100-106>115-180300-
...SOUTH CENTRAL AND SOUTHEAST MISSOURI...

CITY           SKY/WX    TMP DP  RH WIND       PRES   REMARKS
CAPE GIRARDEAU FAIR      10   5  80 SE3       30.61F
FARMINGTON     CLOUDY    17   6  62 CALM      30.53F
POPLAR BLUFF   FAIR      12   8  84 CALM      30.60F
WEST PLAINS    CLOUDY    15   6  67 SW3       30.54S

$$


USA.gov is the U.S. government's official web portal to all federal, state and local government web resources and services.